Tracking 30703 objects as of 13-Jun-2025
HD Live streaming from Space Station
objects crossing your sky now

IRIDIUM 177

Track IRIDIUM 177 now!
10-day predictions
IRIDIUM 177 is classified as:


NORAD ID: 56727
Int'l Code: 2023-068T
Perigee: 633.9 km
Apogee: 637.6 km
Inclination: 86.2 °
Period: 97.3 minutes
Semi major axis: 7006 km
RCS: Unknown
Launch date: May 20, 2023
Source: United States (US)
Launch site: AIR FORCE WESTERN TEST RANGE (AFWTR)
Your satellite tracking list
Your tracking list is empty




NASA's NSSDC Master Catalog

Two Line Element Set (TLE):
1 56727U 23068T   25164.55581035  .00001423  00000-0  18377-3 0  9995
2 56727  86.1975 143.8518 0002575  83.2041 276.9473 14.80226590111831
Source of the keplerian elements: AFSPC